Regional Weather Roundup
Issued by NWS

Home | Current Version | Previous Version | Text Only | Print | Product List | Glossary Off
Versions: 1 2 3 4 5 6 7 8 9 10 11 12 13 14 15 16 17 18 19 20 21 22 23 24 25 26 27 28 29 30 31 32 33 34 35 36 37 38 39 40 41 42 43 44 45 46 47 48 49 50

000
ASUS43 KLMK 272210
RWRKY
KENTUCKY REGIONAL WEATHER ROUNDUP
NATIONAL WEATHER SERVICE LOUISVILLE KY
500 PM EST SAT DEC 27 2014

NOTE "FAIR" INDICATES FEW OR NO CLOUDS BELOW 12,000 FEET
WITH NO SIGNIFICANT WEATHER AND/OR OBSTRUCTIONS TO VISIBILITY.

KYZ001>023-026-027-061>063-070>075-272300-
WESTERN AND SOUTH CENTRAL KENTUCKY

CITY           SKY/WX    TMP DP  RH WIND       PRES   REMARKS
PADUCAH        CLOUDY    50  49  96 CALM      30.11R FOG
HENDERSON      CLOUDY    48  46  93 SW5       30.11S
OWENSBORO      LGT RAIN  49  48  96 S5        30.13S FOG
HOPKINSVILLE   DRIZZLE   50  48  93 SE5       30.12S FOG
BOWLING GREEN  CLOUDY    51  46  83 S5        30.13S
GLASGOW        LGT RAIN  51  43  75 SW3       30.13S
$$

KYZ024-025-028>034-038-045-046-053-272300-
NORTH CENTRAL KENTUCKY

CITY           SKY/WX    TMP DP  RH WIND       PRES   REMARKS
LOUISVILLE/SDF DRIZZLE   50  47  89 S6        30.13R
LOUISVILLE/LOU LGT RAIN  49  47  93 S5        30.13S FOG
FORT KNOX      LGT RAIN  47  46  95 S9        30.11S FOG
$$

KYZ035>037-039>044-047>052-055>060-089>105-272300-
NORTHEAST KENTUCKY

CITY           SKY/WX    TMP DP  RH WIND       PRES   REMARKS
LEXINGTON      CLOUDY    52  43  71 SW9       30.13R
COVINGTON      DRIZZLE   48  43  82 S3        30.10S
FRANKFORT      CLOUDY    50  43  77 SW13      30.13R
$$

KYZ054-064>069-076>088-106>120-272300-
SOUTHEAST KENTUCKY

CITY           SKY/WX    TMP DP  RH WIND       PRES   REMARKS
JACKSON        MOCLDY    58  26  29 CALM      30.13S
LONDON         CLOUDY    59  27  29 S6        30.12F
SOMERSET       CLOUDY    57  32  38 S9        30.14R
MIDDLESBORO    CLOUDY    54  33  43 S6        30.18R
MONTICELLO     CLOUDY    59  35  40 S8        30.16R
$$



USA.gov is the U.S. government's official web portal to all federal, state and local government web resources and services.